Wind_Speed
25 27 28 29 30 30 31 32 33 34 36 37 38 40 41 42 43 45 46 47 49 51 51 52 52 52 52 50 49 49 49 48 47 46 45 44 43 42 42 41 39 39 40
27 27 27 29 31 32 33 34 35 37 37 38 39 41 42 44 46 47 49 50 51 53 55 56 57 57 55 54 53 53 53 53 52 50 49 49 49 49 48 47 46 45 45
26 26 27 29 30 31 34 36 38 39 39 40 42 44 45 47 50 51 52 52 53 54 56 57 60 61 60 60 59 57 57 58 57 55 54 54 54 53 53 52 52 51 50
27 29 31 31 32 33 35 38 39 41 42 44 46 48 49 51 53 54 55 55 55 57 59 60 62 64 65 64 62 60 59 60 60 59 58 58 58 58 57 56 55 55 55
30 32 34 35 36 38 39 41 43 44 45 47 49 52 54 56 58 59 59 59 60 61 63 66 67 68 68 67 65 63 62 63 63 63 63 63 63 62 61 60 59 58 58
33 35 37 39 40 42 44 45 47 48 49 51 54 56 58 60 61 62 62 63 64 65 67 70 72 74 74 74 71 69 68 67 66 67 68 69 69 69 68 66 64 62 59
36 39 41 43 45 46 47 49 51 53 54 56 58 58 60 60 58 56 55 56 58 60 63 66 69 72 75 76 76 75 72 70 68 68 69 71 74 76 75 72 68 65 63
40 43 45 47 48 49 50 52 54 56 58 59 59 58 54 51 49 47 49 50 52 53 54 55 56 59 62 66 70 72 71 69 67 67 67 70 73 76 78 76 73 68 66
45 48 49 50 51 51 52 55 57 59 59 58 55 50 46 44 44 44 44 45 47 49 50 51 52 53 53 55 57 59 61 62 61 61 62 65 68 71 76 77 74 70 67
52 53 53 53 52 52 54 56 57 56 53 49 45 43 43 44 44 43 43 45 48 50 51 51 51 51 51 51 51 51 54 55 55 56 57 58 61 64 71 74 73 70 68
57 56 55 54 54 55 57 57 54 49 45 42 41 41 42 43 45 47 48 49 52 53 53 52 50 49 49 49 50 49 50 50 50 50 49 47 49 53 61 68 70 68 67
60 58 57 57 58 59 57 54 48 43 41 41 42 41 42 44 47 50 52 53 54 55 55 54 51 48 46 45 45 44 44 44 44 43 41 38 39 44 51 59 64 66 65
61 59 59 60 61 58 53 47 42 41 43 43 43 44 46 49 51 54 55 55 55 55 55 53 51 49 46 44 41 40 40 40 39 38 37 35 34 37 42 49 56 62 65
59 58 60 62 59 52 46 44 44 44 45 45 46 48 50 53 56 58 59 58 56 55 54 51 48 49 47 43 39 38 37 35 34 34 35 34 32 32 33 38 43 48 53
57 58 60 58 52 47 45 46 46 46 47 48 51 53 55 58 61 62 61 59 58 56 53 48 45 46 46 42 38 35 33 32 32 32 33 33 32 32 33 34 36 40 44
57 58 56 51 47 45 45 46 47 48 51 53 55 57 60 62 63 61 59 58 58 58 54 47 42 42 44 40 36 33 30 29 30 31 31 31 31 32 32 33 35 37 41
57 56 51 47 45 44 45 47 50 53 56 58 60 62 63 62 60 58 56 55 54 53 50 43 38 39 40 37 33 29 25 26 28 28 29 30 32 33 34 35 35 37 39
54 50 47 46 46 46 49 51 54 57 60 62 63 64 62 60 56 54 52 49 47 46 44 38 33 34 34 31 27 23 21 22 24 26 29 31 33 34 35 37 38 40 41
48 45 45 46 48 50 53 56 59 61 62 64 64 62 60 56 52 49 46 43 41 40 39 31 27 29 28 25 21 19 18 19 21 22 24 25 28 30 33 35 38 41 43
44 44 45 48 52 55 58 60 62 63 64 64 63 59 55 50 45 42 40 37 36 35 32 26 23 23 23 20 17 17 17 17 17 18 20 22 25 27 31 34 38 41 43
43 44 48 52 56 59 60 61 62 62 61 58 54 50 46 42 39 36 33 32 31 29 25 21 19 19 18 16 15 16 16 16 17 17 19 21 23 26 29 33 36 38 39
45 47 51 55 57 59 60 60 58 55 54 52 49 45 41 38 34 29 27 26 25 23 20 17 15 15 15 13 13 14 15 16 16 17 18 19 22 24 27 28 30 30 30
48 51 53 56 57 58 57 54 52 51 50 48 42 35 32 29 24 21 22 22 21 18 15 14 13 13 12 10 10 12 14 15 15 16 16 17 20 22 23 23 21 20 20
51 53 54 55 55 54 50 47 44 42 40 35 30 28 26 21 18 18 19 19 17 13 12 11 12 11 9 8 8 10 11 12 12 12 12 13 15 17 16 13 12 11 7
52 53 53 53 51 48 43 39 35 33 33 31 29 26 22 18 17 16 16 15 13 11 10 10 11 10 8 6 6 7 8 8 7 8 7 9 11 12 10 9 7 3 8
51 51 51 50 46 41 38 34 32 33 33 31 28 24 20 18 16 14 13 12 12 11 11 11 9 7 6 6 6 6 7 5 4 4 5 6 8 9 9 10 8 9 16
Wind_Direction
297 299 301 302 303 302 302 302 301 301 299 296 293 291 289 285 282 280 278 275 273 273 272 273 272 271 270 268 268 268 267 266 263 261 259 257 254 250 250 251 254 254 250
295 299 301 303 304 305 305 304 303 301 299 298 295 293 289 285 283 282 280 277 275 272 270 269 269 269 269 269 269 269 268 267 266 264 262 260 257 253 249 248 247 249 249
299 302 304 304 305 304 304 303 302 301 299 298 297 295 292 288 286 284 282 280 278 276 273 270 268 267 266 266 266 265 264 264 264 263 262 262 261 258 254 251 249 249 249
307 306 307 306 305 303 301 299 296 295 295 294 294 292 290 288 285 284 282 280 279 278 275 273 271 270 268 266 264 262 260 260 260 260 261 261 259 258 257 255 253 250 250
311 310 308 307 305 303 300 297 295 294 293 293 292 290 289 287 286 284 282 281 280 277 275 273 273 272 271 269 267 264 261 259 257 257 258 259 259 258 257 256 255 252 250
314 311 308 307 305 303 301 299 298 296 294 293 292 290 288 286 285 283 282 281 280 278 276 275 273 272 271 269 268 267 264 263 261 258 257 257 256 256 255 255 254 253 251
316 313 310 309 308 306 304 303 301 298 296 294 292 290 288 287 286 285 284 284 283 282 280 279 276 274 272 270 269 267 265 264 264 263 261 259 255 253 252 252 251 250 249
320 317 314 311 309 307 305 303 300 297 294 292 292 290 287 285 284 284 284 284 284 285 284 284 282 279 276 271 268 266 264 263 264 264 264 263 258 252 249 248 247 246 246
321 318 315 312 309 307 305 303 301 298 295 293 292 290 287 287 286 283 284 286 288 289 289 287 284 282 279 276 271 266 263 263 262 263 264 264 260 253 246 243 242 242 242
320 317 314 311 309 307 306 304 303 301 298 294 291 289 289 290 289 288 289 291 292 293 292 289 286 283 280 277 273 267 263 261 261 263 265 265 261 252 244 239 237 237 239
320 316 313 311 309 308 307 305 303 302 298 293 291 291 292 293 294 294 294 295 295 295 294 292 288 284 280 277 272 268 264 262 261 262 264 265 261 253 244 237 234 232 234
319 316 313 311 308 308 307 305 301 299 296 294 293 293 295 296 297 297 297 296 295 296 296 294 290 285 280 278 273 267 264 262 261 260 261 261 258 252 245 238 233 230 231
316 314 311 309 309 309 306 302 298 295 294 294 293 295 296 296 297 297 298 297 295 295 296 294 289 284 280 279 274 267 263 262 260 258 257 256 255 252 246 240 236 234 234
312 311 310 310 311 309 303 299 297 295 294 294 294 294 295 296 298 298 298 296 295 295 296 293 286 281 278 277 275 267 263 261 259 257 256 254 252 248 243 238 235 235 236
310 310 311 312 310 305 301 299 297 296 295 294 294 295 296 297 298 298 297 296 294 294 295 291 282 275 272 272 273 268 263 260 259 258 257 254 250 245 240 237 235 235 237
310 311 311 309 307 305 302 300 298 298 297 296 296 297 297 297 297 295 294 294 294 294 294 290 279 268 265 267 272 269 261 256 256 257 256 252 246 242 239 238 239 240 241
311 311 310 308 307 306 305 303 302 300 299 298 298 298 297 296 294 293 292 292 292 293 293 289 277 262 259 264 270 267 256 250 251 251 250 247 246 245 245 244 245 246 247
311 310 309 308 308 308 307 305 302 300 299 299 298 298 298 296 293 291 291 290 291 292 292 286 271 258 255 261 267 260 249 245 246 249 250 248 248 248 247 249 251 251 251
310 309 310 310 310 309 308 305 303 302 301 300 299 298 297 295 292 290 288 288 290 291 290 281 263 253 253 259 258 248 242 243 248 251 253 252 250 249 251 253 255 255 254
307 309 311 312 311 310 308 306 305 304 303 302 301 299 298 295 292 288 286 286 289 290 286 274 256 248 250 252 246 240 241 246 250 255 258 255 253 254 257 258 261 262 260
309 312 314 314 312 310 308 307 307 306 305 304 304 304 302 297 292 285 282 283 287 287 279 265 250 241 242 242 238 238 240 246 252 260 261 257 258 262 265 268 268 266 262
314 316 315 313 311 309 308 310 310 308 306 306 307 305 301 297 290 282 279 280 285 281 270 254 236 228 230 235 236 237 239 247 256 262 259 258 265 271 276 278 279 276 268
316 316 315 312 310 310 312 312 310 308 308 309 309 307 304 300 291 279 278 281 284 272 254 232 217 212 220 236 240 239 240 248 258 260 257 266 277 284 287 290 289 288 278
317 316 313 311 311 313 314 313 312 313 316 318 317 313 307 300 290 282 280 282 276 256 231 211 204 208 219 230 230 230 235 244 252 255 267 282 293 302 307 309 314 315 291
316 314 313 313 315 317 317 316 316 319 320 318 315 312 307 300 290 285 280 272 255 227 200 187 191 200 210 216 218 221 218 221 242 269 292 310 324 333 345 357 359 33 132
315 315 316 319 320 321 320 318 317 319 319 316 312 308 303 296 290 284 272 247 222 195 172 169 176 188 198 191 187 180 179 198 246 297 352 9 8 9 23 35 61 108 132
Height
5838 5836 5833 5830 5828 5826 5824 5821 5820 5818 5816 5813 5810 5808 5806 5804 5802 5801 5799 5797 5796 5795 5795 5794 5794 5793 5793 5793 5793 5794 5795 5795 5796 5797 5798 5800 5801 5802 5804 5807 5809 5811 5814
5833 5831 5829 5826 5823 5820 5818 5815 5813 5811 5808 5805 5802 5799 5796 5793 5790 5788 5786 5785 5783 5782 5781 5781 5781 5780 5781 5781 5781 5782 5782 5783 5785 5785 5787 5788 5790 5792 5794 5796 5799 5802 5804
5828 5826 5824 5821 5818 5814 5812 5809 5806 5803 5799 5796 5793 5789 5786 5783 5779 5775 5773 5771 5769 5768 5767 5767 5767 5767 5767 5767 5768 5769 5769 5770 5771 5773 5774 5776 5778 5779 5782 5784 5787 5790 5793
5823 5820 5817 5814 5810 5807 5804 5801 5799 5795 5792 5788 5784 5780 5775 5771 5767 5763 5760 5758 5756 5754 5753 5752 5751 5750 5750 5750 5751 5753 5755 5756 5757 5759 5760 5762 5764 5766 5768 5770 5774 5777 5780
5815 5812 5808 5805 5802 5799 5795 5792 5789 5785 5781 5777 5772 5767 5762 5756 5752 5748 5745 5742 5740 5738 5736 5735 5733 5732 5731 5732 5733 5735 5737 5739 5741 5743 5744 5746 5749 5751 5753 5756 5759 5762 5766
5807 5803 5799 5796 5792 5788 5785 5780 5776 5772 5768 5763 5758 5753 5747 5741 5736 5732 5729 5725 5722 5720 5717 5716 5714 5713 5712 5712 5713 5715 5717 5720 5722 5724 5727 5729 5732 5734 5737 5740 5744 5747 5751
5798 5794 5790 5785 5780 5776 5771 5766 5761 5756 5752 5747 5742 5737 5731 5725 5720 5716 5712 5709 5705 5702 5699 5696 5694 5692 5691 5691 5692 5694 5696 5699 5701 5703 5705 5708 5712 5714 5718 5722 5726 5731 5735
5789 5784 5778 5773 5767 5762 5757 5752 5747 5741 5736 5731 5726 5721 5716 5712 5707 5704 5700 5696 5691 5687 5683 5679 5676 5673 5671 5670 5670 5672 5675 5678 5681 5682 5683 5685 5688 5691 5696 5701 5707 5712 5717
5777 5772 5766 5760 5755 5749 5744 5738 5732 5725 5720 5715 5709 5705 5701 5698 5696 5693 5689 5684 5678 5673 5669 5664 5660 5657 5654 5652 5651 5652 5654 5658 5660 5661 5662 5662 5663 5666 5671 5677 5685 5692 5699
5766 5760 5754 5747 5741 5735 5729 5723 5716 5709 5703 5699 5695 5691 5688 5685 5682 5679 5677 5672 5665 5660 5655 5650 5646 5642 5639 5636 5635 5636 5637 5639 5642 5642 5642 5641 5641 5643 5647 5654 5663 5671 5679
5753 5747 5740 5734 5727 5720 5714 5707 5700 5694 5689 5685 5682 5679 5676 5672 5668 5664 5661 5657 5651 5645 5640 5635 5632 5628 5624 5621 5620 5620 5622 5623 5625 5625 5624 5623 5622 5623 5627 5634 5642 5652 5660
5740 5733 5727 5720 5713 5706 5698 5691 5686 5681 5677 5673 5669 5666 5663 5659 5654 5650 5646 5643 5637 5631 5624 5619 5616 5613 5610 5607 5606 5606 5607 5608 5609 5610 5610 5609 5608 5609 5612 5618 5625 5634 5643
5727 5721 5714 5706 5698 5691 5684 5678 5673 5669 5665 5661 5657 5653 5648 5644 5640 5636 5631 5627 5623 5617 5610 5604 5600 5598 5595 5594 5592 5593 5594 5595 5596 5597 5598 5598 5597 5598 5600 5604 5611 5619 5627
5716 5708 5700 5692 5684 5677 5671 5667 5663 5658 5653 5649 5645 5640 5635 5630 5625 5620 5614 5610 5607 5603 5596 5590 5586 5583 5581 5580 5579 5579 5581 5582 5583 5584 5585 5586 5587 5588 5590 5593 5599 5606 5613
5704 5696 5687 5679 5671 5664 5659 5655 5651 5647 5642 5637 5632 5627 5620 5614 5608 5602 5597 5592 5590 5587 5583 5576 5573 5569 5567 5567 5567 5567 5568 5569 5571 5572 5574 5575 5577 5578 5581 5585 5590 5596 5601
5693 5684 5676 5668 5661 5654 5649 5644 5640 5635 5630 5624 5618 5611 5604 5597 5591 5585 5579 5575 5571 5569 5566 5562 5559 5556 5553 5554 5554 5555 5556 5558 5560 5562 5563 5565 5567 5569 5572 5575 5580 5584 5589
5681 5673 5665 5658 5650 5644 5638 5633 5627 5621 5615 5608 5601 5594 5588 5580 5574 5568 5563 5559 5555 5551 5549 5547 5544 5542 5541 5542 5543 5544 5546 5548 5551 5553 5554 5556 5558 5560 5563 5565 5568 5571 5574
5669 5661 5654 5647 5640 5633 5627 5620 5614 5607 5599 5592 5584 5576 5569 5563 5557 5552 5548 5544 5541 5537 5534 5533 5531 5530 5531 5532 5534 5535 5537 5539 5542 5544 5546 5547 5549 5551 5552 5554 5556 5558 5560
5657 5649 5643 5636 5629 5622 5614 5606 5599 5591 5583 5574 5566 5559 5552 5547 5543 5538 5534 5532 5529 5525 5522 5520 5520 5520 5522 5524 5526 5527 5530 5532 5534 5536 5537 5538 5540 5541 5542 5543 5543 5544 5545
5645 5637 5630 5623 5616 5608 5600 5591 5583 5574 5565 5556 5547 5541 5536 5531 5528 5524 5522 5520 5518 5515 5512 5511 5512 5513 5515 5517 5519 5521 5524 5526 5528 5529 5530 5531 5531 5532 5532 5531 5530 5529 5529
5634 5625 5617 5610 5603 5594 5585 5576 5567 5558 5548 5539 5532 5526 5521 5517 5514 5512 5511 5510 5509 5506 5505 5504 5506 5507 5510 5512 5514 5517 5519 5521 5523 5524 5524 5524 5524 5523 5521 5519 5516 5513 5512
5622 5613 5605 5598 5590 5581 5571 5561 5552 5542 5533 5527 5521 5515 5509 5505 5502 5501 5502 5501 5500 5499 5499 5499 5501 5503 5506 5508 5510 5513 5515 5517 5518 5519 5519 5518 5517 5514 5510 5506 5502 5498 5495
5611 5602 5594 5586 5577 5567 5557 5548 5538 5529 5522 5515 5509 5504 5500 5495 5494 5494 5495 5495 5494 5493 5494 5495 5498 5501 5503 5505 5507 5509 5511 5513 5514 5514 5514 5513 5510 5506 5501 5496 5491 5486 5481
5599 5591 5583 5574 5565 5555 5545 5536 5527 5519 5512 5506 5501 5497 5493 5490 5489 5489 5489 5489 5489 5489 5490 5493 5496 5499 5501 5503 5504 5506 5508 5509 5510 5510 5510 5508 5505 5500 5494 5489 5484 5479 5473
5589 5580 5572 5563 5553 5544 5535 5526 5519 5512 5506 5500 5496 5491 5488 5486 5485 5485 5485 5485 5485 5487 5489 5491 5494 5497 5500 5501 5503 5504 5506 5507 5508 5508 5507 5505 5502 5496 5491 5486 5482 5479 5477
5579 5570 5560 5551 5542 5533 5525 5518 5512 5506 5500 5494 5489 5486 5483 5481 5480 5480 5480 5481 5483 5485 5488 5491 5494 5496 5498 5500 5502 5503 5505 5506 5507 5507 5506 5504 5501 5496 5492 5488 5485 5484 5484